Weather in Gatikha

Russia / Vladimir Oblast     56°12′47″N   40°51′39″E
temp.,
°C
wind,
m/s
gust,
m/s
humid.,
%
clouds,
%
prec.,
mm/h
press.,
hPa
HPBL,
m
26 february, fri
fri2600:00+1wnw3896100 0.0 1012282
03:00−1wsw2396100 0.0 101160
06:000se3498100 1.1 1009132
09:00+1s47100100 3.1 1005205
12:00+2sw39100100 3.5 1002233
15:00+3wsw615100100 5.4 999395
18:00+2w6169087 1.0 997727
21:000w7149793 1.0 997697
27 february, sat
sat2700:00+1wnw71498100 0.7 996731
03:00+1w71398100 0.9 997734
06:00−9nw81390100 0.7 998609
09:00−11nnw71188100 0.8 1002733
12:00−10nnw6988100 0.1 1005647
15:00−9nnw5988100 0.1 1008651
18:00−12nnw3694100 0.0 1009155
21:00−13nnw369698 0.1 1012136
28 february, sun
sun2800:00−15nnw349656 0.0 101369
03:00−16nnw349630 0.0 101558
06:00−16nnw239632 0.0 101552
09:00−13nnw249361 0.1 1016255
12:00−10nnw248998 0.0 1016421
15:00−8nw349099 0.1 1017492
18:00−9nw2295100 0.1 101828
21:00−10nne2296100 0.1 102030
1 march, mon
mon100:00−13nne129681 0.0 102120
03:00−14nw019784 0.1 102320
06:00−12wsw119699 0.0 102421
09:00−9sw239699 0.1 1025102
12:00−4w3487100 0.1 1024568
15:00−3wsw478998 0.1 1022633
18:00−3wsw51193100 0.0 1019448
21:00−1w61298100 0.4 1017556
2 march, tue
tue200:00+1wnw71395100 0.4 1014656
03:00+1nw71398100 0.4 1012593
06:00+1nw61297100 0.1 1012549
09:00+1wnw6129798 0.2 1011700
12:00+1nw6129199 0.3 1011905
15:00+1nw6128895 0.5 10111030
18:000nw51286100 0.1 1011721
21:00−1nw51290100 0.1 1012744